Location: Bambrugge
(50.9212°N, 3.9299°E)
Time: 19:16:11
(UTC+00:00)

Cosmos 1242 Rocket - Pass Details

Date: 23 May 2024
Orbit: 322 x 337 km, 81.1° (Epoch: 14 June)

Event Time Altitude Azimuth Distance (km) Brightness Sun altitude
Exits shadow 01:14:00 14° 133° (SE) 1,140 4.2 -15.6°
Maximum altitude 01:15:34 20° 92° (E) 908 4.2 -15.5°
Drops below altitude 10° 01:17:51 10° 42° (NE) 1,367 6.0 -15.3°
Sets 01:20:08 0° 25° (NNE) 2,225 7.9 -15.2°
